Showing default

BEIDOU 3M20, 44865

Orbit data source: Space-Track

BEIDOU 3M20, 44865 is a payload satellite owned by CNSA (CN) in MEO that was launched on Mon, 16 Dec 2019 UTC via a CHANG ZHENG 3B/YZ-1 launch vehicle from the Xichang Space Center, China (XSC). Payloads include a variety of satellites, spacecraft, and rockets equipped with specific instruments for various scientific and technological missions. These include communications satellites like Starlink; space stations such as the ISS; scientific satellites like the Hubble; Earth observation satellites from companies like Planet Labs, Umbra, and HawkEye 360; GPS; miniature CubeSats for education and research; and military/defense satellites.

Loading next visibility...
BEIDOU 3M20 details
Identifier
44865, 2019-090B
Orbit
MEO
Last TLE update1 day ago
Origin
Flag of CNCNSA (CN / PRC)
ManufacturerCAST
MissionOperational Defense Navigation
Bus & MotorBD-3M, Unknown motor
Mass1,014 kg wet, ~850 kg dry
Launch date (UTC)
2019-12-16 (5 years ago)
Launch vehicle
CHANG ZHENG 3B/YZ-1
Launch site
Xichang Space Center, China (XSC)
Object type
Payload
Rocket body
Debris
Shape & HBRBox + 2 Pan, Unknown HBR
Radar Cross Section8.984 m², Large (>1 m²)

Expand to show TLE details & history

TLE from 1 day ago
0 BEIDOU 3M20
1 44865U 19090B   24360.22500878 -.00000061  00000-0  00000-0 0  9991
2 44865  56.0873  80.7107 0015366 291.9890  64.7370  1.86231616 34176
Epoch: 2024-12-25T05:24Z
Definitive object data (Epoch: 2024-12-25T05:24:00.758Z)
Latitude-2.60613°
Longitude-96.25555°
Altitude21,510.462 km
Speed3.782 km/s
True Right ascension05h 15m 52s
True Declination-2° 36' 08"
Sunlit
Object was in daylight at TLE epoch
Visualization TLE readout
Latitude24.32969°
Longitude67.79952°
Altitude21,562.298 km
Speed3.775 km/s
Apparent Right ascension16h 54m 32s
Apparent Declination17° 27' 30"
Sunlit
Object is in daylight
Visualization observer readout
Local Sidereal Time12:01:59
Azimuth86.705° E
Elevation23.874°
Doppler factor1
Orbital elements
Apogee altitude21,570.835 km
Perigee altitude21,485.074 km
Semi-major axis27,906.092 km
Eccentricity0.0015366
Inclination56.0873°
RAAN80.7107°
Arg. of periapsis291.989°
True anomaly64.89637°
Mean anomaly64.737°
Eccentric anomaly64.81667°
Mean motion0.46558 °/min
BSTARUnknown
Orbital period773.23 mins
Loading maneuver chart data...
Loading historical data...
Loading historical data...
Loading historical data...
Loading historical data...
Loading historical data...
Loading historical data...
Loading historical data...
Other satellites on launch #90 in the year 2019 (2019-12-16 UTC)

BEIDOU 3M20 Visibility forecast

Observer location: undefined°, undefined

Span
Click to sort rows by Start time (UTC) header in descending order
Start Az.
Max El. time (UTC)
Max El. Az.
Max El.
End time (UTC)
End Az.
50 mins2024-12-26 12:40:25.908Z86.732° E2024-12-26 12:40:25.908Z86.732° E22.028°2024-12-26 13:30:25.908Z103.06° ESE
244 mins2024-12-27 08:36:25.908Z231.458° WSW2024-12-27 12:39:25.908Z16.454° NNE43.18°2024-12-27 12:40:25.908Z17.662° NNE
|